Flag for Singapore Weather past 2 weeks in Singapore, Singapore

Now
77 °F

Light rain. Overcast.


Feels Like: 78 °F
Forecast: 78 / 89 °F
Wind: 9 mph from Northeast

Location: Singapore / Paya Lebar

Current Time: Aug 1, 2015 at 7:55:13 AM

Latest Report: Aug 1, 2015 at 7:00 AM


Visibility: 5 mi

Pressure: 29.89 "Hg

Humidity: 89%

Dew point: 73 °F

Location of SingaporeLocation

Historic Weather in Singapore — Graph

°F

Singapore temperature yesterday

Maximum temperature yesterday: 90 °F (at 1:00 PM)
Minimum temperature yesterday: 79 °F (at 9:00 PM)
Average temperature yesterday: 83 °F

Past Weeks' High & Low Weather Summary

 TemperatureHumidityPressure
High93 °F (Jul 22, 3:00 PM)94% (Jul 25, 7:00 AM)29.95 "Hg (Jul 25, 7:00 AM)
Low79 °F (Jul 26, 1:00 PM)52% (Jul 22, 1:00 PM)29.74 "Hg (Jul 17, 3:00 PM)
Average86 °F72%29.85 "Hg
* Reported Jul 17 6:00 AM — Aug 1 6:00 AM, Singapore, Weather by CustomWeather, © 2015

Note: Actual official high and low records may vary slightly from our data, if they occured in-between our weather recording intervals... More about our weather records

Advertising

Singapore weather history for previous 24 hours

 ConditionsComfort  
Time TempWeatherWind HumidityBarometerVisibility
6:00 AM
Sat, Aug 1
79 °FLight rain. Passing clouds.8 mph89%29.86 "Hg5 mi
5:00 AM79 °FPassing clouds.7 mph89%29.86 "HgN/A
11:00 PM
Fri, Jul 31
81 °FPassing clouds.No wind79%29.89 "HgN/A
10:00 PM79 °FPassing clouds.5 mph84%29.86 "HgN/A
9:00 PM79 °FPartly cloudy.8 mph84%29.86 "HgN/A
8:00 PM81 °FPartly cloudy.3 mph89%29.86 "HgN/A
7:00 PM81 °FLight rain. Partly sunny.2 mph89%29.83 "HgN/A
6:00 PM82 °FPartly sunny.1 mph84%29.80 "HgN/A
5:00 PM81 °FLight rain. Partly sunny.1 mph89%29.80 "Hg4 mi
4:00 PM81 °FThunderstorms. Partly sunny.3 mph84%29.83 "Hg4 mi
3:00 PM86 °FThunderstorms. Scattered clouds.9 mph66%29.83 "Hg4 mi
2:00 PM88 °FThundershowers. Broken clouds.21 mph66%29.83 "Hg5 mi
1:00 PM90 °FBroken clouds.12 mph63%29.86 "HgN/A
12:00 PM88 °FPartly sunny.9 mph66%29.86 "HgN/A
11:00 AM86 °FBroken clouds.9 mph75%29.89 "HgN/A
10:00 AM86 °FBroken clouds.9 mph75%29.86 "HgN/A
9:00 AM84 °FBroken clouds.8 mph79%29.86 "HgN/A
8:00 AM81 °FBroken clouds.3 mph94%29.83 "HgN/A
7:00 AM81 °FPassing clouds.No wind89%29.83 "Hg5 mi
Weather by CustomWeather, © 2015

See weather overviewHow to use our weather pages